Location: *
(45.4590°N, 16.3650°E)
Time: 13:59:23
(UTC+00:00)

Cosmos 1607 - Pass Details

Date: 17 January 2020
Orbit: 924 x 978 km, 65.0° (Epoch: 16 February)

Event Time Altitude Azimuth Distance (km) Brightness Sun altitude
Rises 16:33:24 0° 196° (SSW) 3,553 7.5 -9.4°
Reaches altitude 10° 16:35:58 10° 191° (S) 2,615 6.7 -9.8°
Maximum altitude 16:41:48 50° 117° (ESE) 1,162 4.2 -10.8°
Enters shadow 16:47:26 11° 45° (NE) 2,543 5.6 -11.7°
